Location: Bieujac
(44.5398°N, 0.1549°W)
Time: 13:48:49
(UTC+00:00)

Meteor 2-20 - Pass Details

Date: 17 November 2019
Orbit: 939 x 958 km, 82.5° (Epoch: 14 December)

Event Time Altitude Azimuth Distance (km) Brightness Sun altitude
Rises 04:49:36 0° 348° (NNW) 3,650 7.3 -23.0°
Reaches altitude 10° 04:52:07 10° 346° (NNW) 2,700 6.6 -22.5°
Maximum altitude 04:58:14 67° 266° (W) 1,037 4.3 -21.4°
Drops below altitude 10° 05:04:17 10° 185° (S) 2,675 6.8 -20.4°
Sets 05:06:47 0° 183° (S) 3,614 7.5 -19.9°
